DateTimeUTC,F1_A11,F1_S11,BsB_S11,BsG_S11,BsR_S11,BbsB_S11,BbsG_S11,BbsR_S11,BaB_A11,BaG_A11,BaR_A11,Tu_S11,T_S11,Uu_S11,U_S11,P_S11,T1_A11
2021-09-29T15:00:00Z,00000200,20000000,,,,,,,0000.15,0000.27,0000.21,17.2,24.0,01.5,01.0,0669.9,31.0
2021-09-29T15:01:00Z,00000200,20000000,,,,,,,-000.17,-000.26,-000.22,17.2,24.0,01.5,01.0,0669.9,31.0
2021-09-29T15:02:00Z,00000200,20000000,,,,,,,-000.07,-000.32,-000.23,17.2,24.0,01.5,01.0,0669.9,31.0
2021-09-29T15:03:00Z,00000200,60000000,,,,,,,0000.19,0000.51,0000.19,17.2,24.1,01.5,01.0,0669.9,31.0
2021-09-29T15:04:00Z,00000200,41000000,0000.85,0000.84,0000.25,0000.68,0000.16,-000.36,0000.09,-000.33,0000.08,17.3,23.9,01.6,01.1,0670.8,31.0
2021-09-29T15:05:00Z,00000200,01000000,-000.15,0000.79,0000.61,0000.02,0000.19,0000.17,0000.59,0000.51,0000.61,17.3,23.8,01.5,01.0,0670.9,30.9
2021-09-29T15:06:00Z,00000200,01000000,0000.01,0001.12,0000.68,0000.75,-000.01,0000.17,-000.03,0000.20,-000.21,17.2,23.8,01.6,01.1,0670.9,31.0
2021-09-29T15:07:00Z,00000200,01000000,0000.65,0001.03,0000.97,0000.55,0000.24,0000.21,0000.31,0000.15,0000.40,17.2,23.8,01.6,01.1,0670.9,31.0
2021-09-29T15:08:00Z,00000200,01000000,0001.37,0000.89,0000.68,0001.05,0000.28,-000.03,0000.28,0000.40,0000.03,17.2,23.7,01.6,01.1,0670.9,31.0
2021-09-29T15:09:00Z,00000200,01000000,0001.27,0001.10,0000.40,0000.63,-000.04,-000.01,0000.71,0000.48,0000.25,17.2,23.8,01.7,01.1,0670.9,30.9
2021-09-29T15:10:00Z,00000200,01000000,0001.43,0000.40,0000.59,0000.24,-000.16,-000.23,-000.10,0000.21,0000.16,17.2,23.7,01.5,01.0,0670.9,31.0
2021-09-29T15:11:00Z,00000200,01000000,0001.37,0000.49,0000.38,0000.02,0000.33,0000.17,0000.38,0000.33,0000.26,17.2,23.7,01.6,01.1,0670.9,31.0
2021-09-29T15:12:00Z,00000200,01000000,0001.49,0000.60,0000.47,0000.38,0000.37,0000.09,0000.41,0000.23,0000.35,17.3,23.8,01.4,01.0,0670.9,31.0
2021-09-29T15:13:00Z,00000200,01000000,0001.82,0000.74,0000.41,0000.55,0000.19,-000.11,0000.07,0000.58,0000.26,17.4,23.8,01.5,01.0,0670.9,31.0
2021-09-29T15:14:00Z,00000200,01000000,0001.04,0000.78,0000.73,0000.17,0000.37,-000.15,0000.16,-000.02,0000.19,17.5,23.8,01.5,01.0,0670.9,31.0
2021-09-29T15:15:00Z,00000200,01000000,0000.91,0000.86,0000.38,0000.06,0000.13,0000.23,0000.33,-000.01,-000.07,17.5,23.9,01.4,00.9,0670.9,31.0
2021-09-29T15:16:00Z,00000200,01000000,0001.64,0001.44,0000.55,0000.41,0000.34,0000.21,0000.32,0000.36,0000.16,17.5,23.9,01.4,01.0,0670.9,31.0
2021-09-29T15:17:00Z,00000200,01000000,0001.26,0000.23,0000.66,0000.51,0000.35,0000.18,-000.05,0000.03,0000.27,17.4,23.8,01.4,01.0,0670.9,31.0
2021-09-29T15:18:00Z,00000200,01000000,0001.12,0000.82,0000.39,0000.66,0000.34,0000.11,0000.44,0000.18,-000.06,17.4,23.8,01.4,00.9,0670.9,31.0
2021-09-29T15:19:00Z,00000200,01000000,0001.05,0001.02,0000.72,0000.13,0000.23,0000.25,0000.42,0000.39,0000.06,17.4,23.8,01.4,00.9,0670.9,31.0
2021-09-29T15:20:00Z,00000200,01000000,0001.55,0000.76,0000.45,0000.93,0000.03,0000.15,-000.10,-000.14,-000.00,17.4,23.8,01.3,00.9,0670.9,31.0
2021-09-29T15:21:00Z,00000200,01000000,0001.91,0001.12,0000.59,0000.96,0000.16,-000.02,0000.29,0000.63,0000.36,17.4,23.8,01.3,00.9,0670.9,31.0
2021-09-29T15:22:00Z,00000200,01000000,0000.87,0001.00,0000.74,0001.42,0000.14,0000.44,0000.41,-000.01,0000.24,17.3,23.8,01.3,00.9,0670.8,31.0
2021-09-29T15:23:00Z,00000200,01000000,0001.38,0000.97,0000.47,0000.13,0000.27,0000.12,0000.46,0000.37,0000.24,17.3,23.8,01.3,00.9,0670.8,30.9
2021-09-29T15:24:00Z,00000200,01000000,0001.57,0000.98,0000.57,-000.55,0000.18,0000.04,0000.04,0000.09,0000.24,17.3,23.7,01.3,00.8,0670.8,30.9
2021-09-29T15:25:00Z,00000200,01000000,0001.23,0000.59,0000.52,0000.08,0000.02,0000.36,0000.21,0000.05,0000.25,17.2,23.7,01.2,00.8,0670.8,30.9
2021-09-29T15:26:00Z,00000200,01000000,0001.15,0000.89,0000.79,0000.15,-000.04,0000.23,0000.12,0000.21,-000.05,17.3,23.7,01.2,00.8,0670.8,31.0
2021-09-29T15:27:00Z,00000200,01000000,0001.98,0001.07,0000.68,-000.05,0000.41,-000.21,0000.22,0000.39,0000.37,17.3,23.8,01.2,00.8,0670.8,31.0
2021-09-29T15:28:00Z,00000200,01000000,0001.43,0000.78,0000.40,0000.48,0000.28,0000.20,0000.50,0000.39,0000.05,17.4,23.8,01.1,00.8,0670.8,31.0
2021-09-29T15:29:00Z,00000200,01000000,0001.02,0001.01,0000.69,0000.63,0000.44,0000.18,0000.31,-000.00,0000.14,17.4,23.8,01.1,00.8,0670.8,31.0
2021-09-29T15:30:00Z,00000200,01000000,0000.96,0000.90,0000.74,0000.79,0000.19,0000.28,0000.06,0000.41,0000.26,17.4,23.8,01.2,00.8,0670.8,31.0
2021-09-29T15:31:00Z,00000200,01000000,0001.11,0000.89,0000.72,0000.47,-000.06,0000.10,0000.26,0000.22,0000.06,17.4,23.8,01.1,00.8,0670.8,31.0
2021-09-29T15:32:00Z,00000200,01000000,0000.95,0001.18,0000.29,0000.50,0000.05,0000.26,0000.20,0000.25,0000.19,17.3,23.8,01.2,00.8,0670.8,31.0
2021-09-29T15:33:00Z,00000200,01000000,0001.57,0000.92,0000.86,0001.17,0000.12,0000.08,0000.33,0000.09,0000.15,17.3,23.8,01.1,00.7,0670.7,31.0
2021-09-29T15:34:00Z,00000200,01000000,0000.86,0000.55,0000.87,0000.38,0000.11,0000.37,0000.37,-000.04,0000.25,17.3,23.7,01.1,00.7,0670.7,30.9
2021-09-29T15:35:00Z,00000200,01000000,0001.43,0001.09,0000.55,0000.30,-000.02,-000.03,0000.16,0000.59,0000.29,17.3,23.7,01.1,00.7,0670.7,31.0
2021-09-29T15:36:00Z,00000200,01000000,0001.56,0001.11,0000.47,0000.58,0000.15,0000.15,0000.13,0000.11,-000.11,17.2,23.7,01.0,00.7,0670.7,30.9
2021-09-29T15:37:00Z,00000200,01000000,0001.16,0001.24,0000.76,0000.00,0000.02,0000.23,0000.31,-000.14,0000.15,17.2,23.7,01.0,00.7,0670.7,30.9
2021-09-29T15:38:00Z,00000200,01000000,0000.68,0000.75,0000.64,0000.18,0000.12,0000.28,0000.37,0000.25,0000.33,17.2,23.7,01.0,00.7,0670.7,30.9
2021-09-29T15:39:00Z,00000200,01000000,0001.38,0000.90,0000.46,-000.24,0000.22,0000.33,0000.34,0000.82,0000.30,17.2,23.7,01.0,00.7,0670.7,30.9
2021-09-29T15:40:00Z,00000200,01000000,0001.29,0000.85,0000.69,-000.26,0000.03,0000.11,0000.12,0000.35,0000.18,17.2,23.7,00.9,00.6,0670.7,30.9
2021-09-29T15:41:00Z,00000200,01000000,0001.71,0001.04,0000.45,0000.59,0000.24,0000.01,0000.41,0000.04,0000.14,17.2,23.7,01.0,00.7,0670.7,30.9
2021-09-29T15:42:00Z,00000200,01000000,0000.96,0000.62,0000.49,0000.62,0000.14,-000.00,0000.11,0000.19,0000.47,17.2,23.7,01.0,00.7,0670.7,30.9
2021-09-29T15:43:00Z,00000200,01000000,0001.53,0000.85,0000.40,0000.25,0000.00,0000.10,0000.37,0000.29,-000.03,17.2,23.7,00.9,00.6,0670.7,30.9
2021-09-29T15:44:00Z,00000200,01000000,0000.76,0000.75,0000.49,0000.36,-000.18,0000.06,0000.47,0000.26,0000.23,17.2,23.7,00.8,00.5,0670.7,31.0
2021-09-29T15:45:00Z,00000200,01000000,0000.95,0000.82,0000.57,0000.42,0000.05,0000.09,0000.02,0000.12,0000.20,17.2,23.7,00.9,00.6,0670.7,30.9
2021-09-29T15:46:00Z,00000200,01000000,0000.60,0001.04,0000.69,0000.08,0000.25,0000.31,0000.22,0000.26,0000.13,17.2,23.7,00.8,00.5,0670.7,30.9
2021-09-29T15:47:00Z,00000200,01000000,0001.48,0000.99,0000.78,0000.46,0000.05,-000.01,0000.14,-000.04,0000.01,17.2,23.7,00.9,00.6,0670.7,30.9
2021-09-29T15:48:00Z,00000200,01000000,0001.71,0000.80,0000.38,0000.47,0000.32,-000.02,0000.20,0000.53,0000.04,17.2,23.7,00.8,00.5,0670.7,30.9
2021-09-29T15:49:00Z,00000200,01000000,0001.07,0000.95,0000.65,0000.05,-000.28,0000.05,0000.47,0000.07,0000.31,17.2,23.7,00.9,00.6,0670.7,31.0
2021-09-29T15:50:00Z,00000200,01000000,0001.48,0000.93,0000.61,-000.06,-000.02,0000.17,0000.27,0000.29,0000.30,17.2,23.7,00.9,00.6,0670.8,31.0
2021-09-29T15:51:00Z,00000200,01000000,0001.12,0000.86,0000.64,0000.16,0000.38,-000.09,-000.07,0000.37,0000.22,17.2,23.7,00.9,00.6,0670.8,31.0
2021-09-29T15:52:00Z,00000200,01000000,0001.07,0000.59,0000.40,-000.35,0000.38,-000.01,0000.14,0000.13,0000.15,17.2,23.6,00.9,00.6,0670.8,31.0
2021-09-29T15:53:00Z,00000200,01000000,0001.27,0000.99,0000.68,0000.29,-000.34,0000.03,0000.40,0000.36,-000.02,17.2,23.6,00.8,00.6,0670.7,31.0
2021-09-29T15:54:00Z,00000200,01000000,0001.96,0000.58,0000.47,0000.51,0000.34,0000.10,0000.63,0000.25,0000.46,17.1,23.6,00.8,00.5,0670.8,30.9
2021-09-29T15:55:00Z,00000200,01000000,0001.19,0000.97,0000.80,0000.60,0000.37,0000.02,0000.16,0000.42,0000.37,17.2,23.6,00.9,00.6,0670.8,31.0
2021-09-29T15:56:00Z,00000200,01000000,0000.60,0001.29,0000.93,-000.20,0000.01,0000.21,0000.48,0000.39,0000.18,17.2,23.6,00.8,00.5,0670.8,31.0
2021-09-29T15:57:00Z,00000200,41000000,,,,,,,0000.53,0000.61,0000.40,17.3,23.7,01.2,00.8,0671.0,31.0
2021-09-29T15:58:00Z,00000200,61000000,,,,,,,-000.28,-000.15,-000.38,17.2,23.9,00.9,00.6,0669.8,31.0
2021-09-29T15:59:00Z,00000200,21000000,,,,,,,-000.11,-000.45,0000.23,17.2,24.0,00.9,00.6,0669.8,31.0
